Theta_e
318 317 316 316 316 319 319 320 320 320 321 322 324 324 323 323 322 321 320 318 317 318 317 317 314 307 309 307 311 308 306 307 307 307 305 304 304 304 305 304 304 304 305 305 305 304 304
314 313 313 312 311 311 312 314 316 316 317 320 322 323 322 322 322 321 319 319 317 317 316 316 309 305 303 315 313 307 307 308 306 306 305 304 304 304 305 304 304 304 305 304 303 305 305
311 310 310 310 309 309 308 308 308 308 309 311 314 319 318 321 321 320 319 318 317 315 315 314 306 302 303 310 313 307 307 307 306 305 304 305 305 304 304 303 304 305 305 304 304 305 303
308 308 308 310 310 308 308 308 308 307 307 307 310 315 314 317 318 319 318 318 317 315 315 314 310 304 305 313 309 310 307 307 308 307 305 305 305 304 304 304 304 306 304 305 304 304 305
307 307 308 309 309 309 308 308 308 307 307 307 307 311 311 314 317 318 317 315 315 314 313 311 306 305 310 312 312 309 310 307 307 306 305 305 304 302 303 303 300 301 303 305 305 304 304
307 306 307 307 307 307 307 307 307 307 306 307 306 306 308 313 314 315 314 314 314 314 309 307 307 307 308 312 308 306 308 307 305 304 303 303 300 301 301 299 303 303 305 304 304 303 304
305 305 305 305 304 304 304 304 305 306 306 306 306 306 305 308 314 315 313 312 308 305 306 309 309 309 309 309 309 305 306 304 303 303 303 303 302 302 302 302 303 306 305 305 303 302 305
304 304 304 304 303 303 304 304 304 306 305 306 305 305 306 305 307 310 311 309 307 302 303 304 305 307 308 309 310 310 304 304 303 303 302 302 302 303 304 304 305 305 305 304 303 303 303
304 303 303 303 303 303 303 303 303 303 305 305 305 304 305 305 306 309 308 307 302 302 304 306 305 307 308 308 310 310 303 302 303 302 302 302 305 305 304 305 306 305 305 304 305 305 304
305 304 303 302 302 302 302 302 302 303 303 304 304 304 305 307 306 306 307 307 302 305 300 303 308 307 309 308 309 309 309 303 303 304 303 303 303 304 304 305 305 306 305 306 304 306 305
303 303 303 301 302 301 302 301 300 302 304 304 303 303 305 305 304 304 304 306 302 303 294 303 311 309 309 309 307 304 306 303 303 303 303 306 306 306 305 305 305 306 306 305 305 306 307
303 303 303 301 302 301 301 301 299 300 303 304 303 303 304 304 304 303 304 306 304 297 293 306 311 311 311 311 309 303 304 304 304 303 302 303 304 304 304 306 306 307 308 308 307 305 308
303 302 303 302 300 302 300 301 299 299 300 304 304 303 303 304 303 304 302 302 300 295 301 305 309 306 306 308 310 304 304 304 304 304 304 305 304 303 304 304 304 306 307 312 311 310 310
302 301 302 302 299 301 301 299 299 299 300 302 302 304 303 303 302 304 302 301 295 298 302 305 306 306 306 305 307 307 303 303 303 304 304 305 307 306 306 304 305 306 307 310 312 313 311
303 302 303 301 299 301 300 299 299 299 301 302 301 304 304 302 302 304 299 300 299 300 303 305 301 307 307 306 304 305 304 302 302 303 305 305 307 308 308 308 306 307 308 308 311 312 315
303 302 302 301 300 299 299 299 299 299 300 301 301 302 303 302 302 303 301 304 302 302 302 304 302 302 305 305 306 305 304 304 304 302 303 305 306 306 308 310 307 309 309 314 315 318 316
302 302 301 300 301 301 300 299 299 298 300 301 301 301 301 303 302 304 303 300 301 301 301 302 304 305 307 308 304 304 306 305 304 305 303 306 306 307 307 310 312 312 311 313 313 314 314
301 300 299 299 302 302 300 300 298 298 300 300 300 297 300 303 303 301 303 300 302 302 301 301 303 303 305 307 307 304 305 305 304 304 305 305 304 304 307 307 309 312 313 314 317 318 315
301 300 299 301 301 300 300 299 298 299 300 300 299 298 301 302 301 302 301 302 301 301 302 302 301 304 306 303 303 303 305 305 305 306 306 308 306 309 309 307 309 312 314 314 315 314 316
300 300 299 300 300 300 300 299 298 301 300 301 301 299 301 302 299 299 300 301 301 302 302 301 302 303 303 302 303 301 306 308 309 308 311 310 309 309 308 307 311 314 311 313 315 316 315
300 299 300 300 299 299 299 298 298 299 300 301 301 300 298 302 302 302 300 300 300 301 301 302 302 302 303 299 304 305 305 306 308 310 310 309 309 308 310 312 312 311 312 311 313 312 315
299 298 299 299 298 297 297 298 298 298 299 299 299 299 300 298 301 303 303 302 301 301 301 301 302 302 302 303 303 305 306 306 308 309 311 309 307 308 304 310 312 312 311 310 310 311 311
299 299 298 297 298 297 297 297 298 298 298 300 300 299 303 303 302 302 303 303 303 302 302 301 301 303 303 302 301 301 301 302 306 309 308 310 310 311 313 311 313 314 310 309 309 309 309
298 298 297 297 296 296 296 298 298 298 298 300 299 300 302 304 304 303 303 303 303 303 303 303 304 303 303 303 304 305 304 305 306 309 308 311 310 310 314 311 313 306 305 305 307 308 305
298 297 297 297 296 296 297 298 298 298 299 300 300 300 300 303 302 303 304 305 305 305 306 306 306 304 304 305 307 307 309 309 308 309 308 308 311 313 314 313 309 309 306 305 306 307 303
297 297 297 297 297 296 298 299 298 298 298 300 300 300 301 302 302 302 302 303 304 305 305 307 306 304 305 306 308 309 310 310 310 310 307 308 309 312 311 312 312 309 305 303 303 306 300
296 297 297 296 296 297 300 299 298 298 298 299 300 300 300 301 301 303 304 305 305 305 306 306 305 306 305 306 309 306 308 308 309 310 312 312 312 312 312 313 312 306 303 302 307 303 298
296 296 296 296 296 297 300 299 298 298 298 298 299 299 299 300 301 303 304 304 305 305 306 304 305 304 306 308 309 307 306 307 308 309 311 310 311 309 310 314 312 302 303 305 302 298 296
296 296 297 298 298 299 299 298 298 297 298 298 298 298 298 299 301 302 303 304 304 304 304 302 304 303 303 306 305 304 306 305 307 310 308 310 308 309 308 307 302 300 302 299 298 297 295
Wind_Speed
17 17 17 17 16 16 16 17 18 17 17 19 19 18 15 16 14 12 12 13 12 14 17 19 22 21 12 5 6 3 4 6 5 9 11 4 6 3 3 3 5 2 3 5 5 8 6
14 14 16 15 14 13 13 15 16 15 15 15 18 16 16 16 15 11 10 13 13 13 17 18 20 19 4 5 4 4 3 5 5 6 5 5 2 2 1 2 1 3 4 7 7 6 4
14 13 13 12 12 11 11 11 12 13 14 15 16 17 16 13 14 12 11 10 14 15 15 16 16 14 1 12 6 6 4 1 2 3 2 2 1 3 2 2 2 3 6 6 4 2 6
14 12 11 12 11 10 10 9 7 6 9 11 11 11 13 14 16 14 11 11 11 15 15 14 15 6 6 11 11 14 9 7 4 2 1 2 2 3 1 3 5 3 4 4 2 2 2
14 13 13 12 11 11 10 10 8 5 6 7 7 8 11 14 17 12 11 12 14 14 16 15 6 2 8 9 7 7 12 6 6 2 2 2 3 3 4 3 4 6 3 3 7 1 1
12 12 13 13 13 11 10 9 8 10 6 6 6 5 6 6 11 12 14 12 17 20 7 2 0 3 8 3 3 3 3 8 2 2 3 4 5 3 3 4 4 3 3 5 4 4 3
15 14 12 11 9 8 7 9 11 8 7 5 6 6 5 3 7 7 7 9 5 3 2 7 4 3 5 6 2 1 5 7 4 4 2 3 3 5 9 7 2 2 2 4 5 5 2
17 15 13 13 10 7 8 8 7 10 6 7 5 8 6 4 5 6 5 2 1 1 7 12 13 9 19 3 4 4 6 6 4 6 5 2 5 11 2 5 4 3 4 6 7 6 6
18 17 15 11 12 9 9 7 5 6 12 8 6 6 6 4 4 5 3 2 1 2 3 7 4 4 6 12 8 10 6 3 3 5 6 7 5 4 5 3 5 5 5 5 7 3 2
17 19 16 14 12 11 11 9 7 7 6 10 7 5 3 4 3 2 1 1 0 2 4 6 3 5 3 5 4 12 14 6 3 9 5 6 6 10 6 5 7 5 9 12 7 2 5
22 21 19 17 16 15 11 8 8 9 7 10 7 3 6 6 1 2 6 1 0 2 3 2 2 3 3 5 4 5 6 2 8 5 5 7 2 3 4 6 7 5 5 9 7 5 0
24 23 21 18 18 18 13 12 7 9 10 11 10 6 7 3 1 3 5 6 2 6 6 3 3 2 3 2 4 3 3 3 3 3 3 6 2 4 6 4 3 3 1 5 4 3 4
26 24 23 20 20 18 12 13 9 7 12 11 11 9 8 4 2 4 4 4 4 4 3 2 3 3 3 2 2 2 4 5 5 3 5 8 14 9 5 6 7 5 4 2 2 0 7
28 24 25 22 19 20 17 12 9 7 10 11 9 10 8 6 2 1 3 4 3 3 5 5 3 1 4 2 3 2 3 2 3 1 2 2 6 5 2 11 7 8 10 5 5 4 3
29 24 26 24 21 20 17 14 11 9 12 13 13 11 5 10 4 1 4 2 6 5 2 2 3 1 2 2 3 2 4 5 7 10 8 4 5 3 3 3 6 3 6 13 6 3 2
28 27 26 24 23 22 19 16 13 11 14 13 12 7 4 12 5 5 3 5 4 3 4 4 4 3 4 3 1 1 4 3 4 11 5 4 6 6 6 2 4 8 4 3 4 4 5
30 29 25 26 25 24 20 18 15 12 16 14 10 2 7 16 8 1 6 5 3 5 3 2 3 4 5 3 5 4 5 4 4 2 6 5 5 5 4 1 2 5 3 3 2 3 2
34 31 29 28 29 27 23 20 16 15 19 17 7 2 9 22 4 3 10 4 3 1 2 6 3 4 4 2 3 4 7 8 3 5 6 6 3 2 10 5 6 6 6 2 3 3 3
33 31 28 28 29 27 25 21 18 20 25 14 4 2 8 17 8 9 3 8 14 6 4 2 4 6 4 7 3 7 8 6 9 7 6 5 2 3 6 4 3 4 4 5 3 2 6
32 30 28 28 29 28 25 22 20 20 28 17 3 2 3 6 5 8 11 13 14 6 12 17 10 3 2 2 4 4 2 3 5 3 8 8 5 6 7 5 3 2 4 2 6 4 2
35 31 32 31 27 27 26 24 24 25 24 14 2 4 5 7 11 12 7 3 10 12 11 11 7 21 7 3 4 13 3 9 7 2 4 1 7 3 4 5 3 5 4 6 9 8 7
32 33 33 32 30 28 27 27 27 26 26 14 3 3 0 1 7 18 18 15 22 9 8 7 18 12 15 18 12 3 2 4 7 2 4 0 4 1 4 4 7 9 9 13 13 8 10
33 33 31 30 31 30 28 29 29 27 27 7 7 3 2 5 8 7 15 19 17 18 19 23 21 17 15 25 16 15 16 19 11 7 2 3 3 2 5 4 6 9 15 16 8 6 6
32 32 30 31 29 28 31 33 32 30 31 14 6 4 4 8 11 13 8 14 20 22 26 16 16 19 27 3 5 5 9 14 12 8 6 6 4 2 2 1 4 5 1 3 10 10 8
30 28 28 29 28 28 31 36 33 32 30 25 16 5 3 3 6 10 13 13 15 15 18 21 22 23 5 4 4 4 3 4 5 9 11 6 5 2 3 3 4 5 4 5 5 5 8
30 28 29 26 26 28 32 35 33 32 29 30 23 20 4 3 6 9 6 11 12 11 11 14 13 14 8 4 4 6 5 3 5 3 12 9 8 4 3 3 3 3 2 4 3 4 2
28 28 27 24 24 27 33 34 34 32 30 24 10 24 4 3 6 6 4 4 4 3 3 2 5 7 12 5 3 3 4 3 4 5 4 4 3 10 5 3 5 3 4 4 2 4 4
29 24 21 23 27 27 32 31 32 29 30 27 11 18 8 3 7 6 6 8 4 4 2 2 3 1 4 4 3 3 3 5 3 3 5 7 4 3 2 5 7 5 4 5 3 2 5
26 20 16 16 24 26 28 28 29 26 27 27 11 14 18 6 4 8 15 20 23 15 7 3 1 4 5 3 3 3 2 1 5 3 1 3 5 4 6 4 1 3 1 2 3 4 4
Wind_Direction
242 250 251 254 256 254 251 259 260 258 255 259 264 265 269 277 280 285 298 308 322 332 336 345 340 352 358 0 257 333 325 343 354 9 38 39 52 10 28 336 338 165 314 314 306 294 246
245 245 250 251 252 251 253 257 258 261 262 263 253 262 269 275 275 276 284 304 316 325 332 341 340 348 17 302 291 283 291 340 15 29 40 42 91 158 90 351 25 306 268 276 277 248 239
233 242 245 248 245 245 249 254 264 266 266 264 262 255 256 269 276 270 275 286 308 317 319 332 336 350 325 246 256 293 238 295 0 12 41 85 85 50 152 326 317 290 319 320 237 224 231
240 245 235 236 238 245 246 256 257 281 279 271 272 259 260 258 261 265 268 276 295 310 311 322 322 343 249 275 280 271 247 237 261 293 344 49 85 90 35 328 12 355 53 357 297 95 326
237 222 225 225 236 232 239 247 254 260 291 293 278 273 261 246 253 253 260 283 295 300 305 306 301 21 268 303 276 304 237 211 229 247 196 102 65 88 26 73 3 3 244 221 316 180 237
226 227 227 228 240 240 234 233 240 255 268 296 286 285 285 257 241 264 270 292 289 290 289 302 238 9 276 268 333 329 190 187 132 100 17 58 56 61 47 84 237 247 253 263 244 303 52
226 227 235 229 235 242 243 250 232 242 240 269 300 300 293 263 225 235 275 298 357 325 214 203 210 248 278 316 349 334 158 144 109 82 201 3 86 204 223 198 121 100 283 283 273 263 320
229 228 224 226 230 226 231 239 261 227 237 238 277 304 293 273 239 239 239 188 202 219 300 255 245 259 270 325 329 289 182 159 140 189 137 38 237 238 140 179 207 232 256 266 285 261 190
224 223 222 226 230 227 226 232 244 240 223 233 256 289 299 241 212 167 186 191 16 350 267 284 220 231 233 182 216 252 168 153 162 155 193 193 196 97 176 205 205 223 210 235 235 316 61
226 221 219 220 221 228 224 226 221 225 221 219 225 251 281 164 178 145 204 182 319 51 23 278 259 266 189 164 262 224 219 157 209 201 214 247 249 247 253 220 188 251 208 234 224 169 243
225 225 220 224 226 224 220 224 223 203 198 188 205 190 168 192 177 121 323 178 57 54 348 300 200 192 143 169 296 360 153 116 191 180 140 236 238 194 185 222 176 233 244 208 204 201 68
221 218 219 219 221 212 219 219 226 201 200 181 178 190 173 181 111 30 37 139 82 49 257 335 170 188 108 264 315 77 103 110 197 211 257 245 11 178 211 243 177 5 351 39 53 93 261
218 223 221 217 213 211 210 217 224 213 205 188 182 184 185 217 64 356 125 65 48 140 346 234 229 140 227 218 247 149 169 180 173 157 235 261 258 254 197 270 285 168 96 294 278 147 246
214 218 215 214 214 211 209 215 216 207 190 187 192 188 191 218 283 13 85 63 126 215 264 339 35 97 191 174 257 191 136 227 236 136 77 216 315 192 190 211 210 200 190 192 235 214 263
214 217 208 209 203 206 210 208 206 190 177 180 187 189 189 217 244 107 75 133 211 195 257 307 338 156 271 275 178 139 218 211 213 174 183 196 259 294 176 200 146 254 195 231 251 0 312
213 207 209 212 210 202 208 202 196 192 179 182 172 172 206 205 181 106 88 237 233 240 356 16 200 191 219 263 232 206 210 210 241 195 177 240 293 251 274 283 283 206 170 97 80 225 226
212 206 213 218 213 212 204 200 193 189 176 176 163 118 207 197 155 130 219 225 266 269 50 309 251 270 226 218 199 209 241 276 213 334 172 167 171 250 17 85 124 4 359 99 310 243 235
211 212 217 224 213 207 202 199 194 187 174 167 141 183 194 177 175 190 230 191 272 267 272 263 296 252 231 221 293 238 232 216 159 159 169 220 162 193 249 227 243 181 177 115 201 215 241
212 215 216 207 206 204 202 195 193 183 178 161 158 165 173 181 210 218 248 237 245 245 296 257 250 211 209 198 233 214 248 261 273 196 203 186 232 324 321 344 346 205 195 149 158 269 215
210 207 211 207 206 200 198 195 191 183 188 178 144 150 186 201 227 194 231 237 238 226 247 245 262 308 269 293 241 270 262 283 2 280 249 170 188 185 241 215 185 289 15 288 201 254 251
205 208 204 196 202 201 202 199 196 186 193 192 207 217 182 199 217 223 205 203 221 233 214 203 261 235 224 260 238 245 241 297 290 21 9 208 221 213 243 200 174 207 219 232 218 240 244
211 205 201 200 202 204 204 202 203 192 195 197 172 175 141 175 170 211 222 231 245 235 223 208 241 234 233 240 233 279 273 207 241 351 152 296 242 163 277 241 254 259 242 244 229 230 238
204 204 202 204 206 209 209 206 205 198 195 190 193 279 189 207 216 203 218 231 246 242 247 241 243 241 243 236 238 249 250 259 255 249 225 235 149 141 257 212 233 249 233 217 215 217 189
206 207 206 205 207 210 211 208 206 205 208 202 163 173 203 226 209 221 231 232 240 238 246 248 243 232 240 350 309 288 274 246 232 215 177 150 146 167 254 174 238 247 249 207 222 245 203
198 201 209 209 209 212 210 207 209 208 212 210 212 185 208 257 222 239 246 255 260 263 260 259 243 233 132 180 212 228 231 214 237 236 217 181 137 238 244 209 291 266 192 183 177 285 209
195 200 210 210 218 213 210 207 209 210 213 211 221 220 245 273 205 211 210 227 243 253 266 251 258 207 161 179 192 202 214 177 182 219 209 196 165 200 185 220 250 261 186 151 132 296 130
189 203 210 212 215 212 206 206 210 213 216 211 220 221 248 264 244 251 222 217 186 205 267 232 160 191 169 179 195 168 214 212 173 174 166 164 192 223 208 251 271 233 156 143 86 244 163
192 196 209 213 212 214 210 206 210 214 218 215 221 215 196 250 253 251 238 232 224 183 217 241 103 134 150 183 181 175 175 214 183 202 165 178 173 208 164 223 246 146 96 175 187 56 145
186 189 185 204 209 203 204 210 211 215 218 217 222 233 233 222 287 296 278 268 230 218 207 242 304 174 168 139 225 149 169 123 180 222 156 180 183 186 186 214 156 291 52 79 131 149 172